World > North America > United States > Texas

Ridge, Texas Regional Weather

Lat: 31.15N, Lon: 96.32W
Wx Zone: TXZ175Web Search
Ridge Weather Warning NWS WEATHER ALERT FOR THE RIDGE, TX AREA - Issued: 337 AM CDT Sun Apr 11 2021 Ridge Weather Warning  

Helpful Tip: Abbreviated, 7 Day, 14 Day Forecasts. There is a weather forecast for every taste.

Feedback


°F Click to change Ridge hourly weather to Imperial units.Click to change Ridge hourly weather to Metric units. °C
Ridge Weather Map
UTC Time: 4/11/2021, 15:39
Your Time:

Ridge, TX Regional Weather

Expires:202104111600;;389361
ASUS44 KFWD 111515
RWRTX 
NORTH TEXAS HOURLY WEATHER ROUNDUP
NATIONAL WEATHER SERVICE FORT WORTH TX
1000 AM CDT SUN APR 11 2021

NOTE: "FAIR" INDICATES FEW OR NO CLOUDS BELOW 12,000 FEET WITH NO
SIGNIFICANT WEATHER AND/OR OBSTRUCTIONS TO VISIBILITY.


TXZ143>147-156>162-174-175-111600-
CENTRAL TEXAS
  
CITY           SKY/WX    TMP DP  RH WIND       PRES   REMARKS
WACO           FAIR      65  45  48 S6        29.80R                  
WACO-TSTC      SUNNY     64  45  48 S7        29.81R                  
WACO-MCGREGOR  FAIR      67  46  47 S9        29.81R                  
HILLSBORO      FAIR      65  44  45 S10       29.80R                  
CORSICANA      FAIR      64  45  49 S9        29.81S                  
MEXIA          FAIR      64  47  53 S6        29.81R                  
HEARNE         FAIR      64  47  53 CALM      29.81F                  
CAMERON        FAIR      65  47  50 CALM      29.80F                  
TEMPLE           N/A     65  41  41 S8        29.81S                  
KILLEEN        FAIR      67  37  33 SE13      29.78F                  
KILLEEN-SKYLRK FAIR      67  39  35 SE9       29.80F                  
FORT HOOD      FAIR      68  38  33 SE8       29.79F                  
GATESVILLE     FAIR      68  36  30 SE12G18   29.81F                  
HAMILTON       FAIR      67  40  36 S9        29.80S                  
$$


SKY/WX - Weather  TMP - Temperature  DP - Dew Point  RH - Relative Humidity
WIND - Wind Direction/Speed PRES - Barometric Pressure VSB - Visibility
WCI - Wind Chill Index E13G22 Wind - East Wind 13 mph/Gusts of 22 mph